McKinney, TX

2:57 PM CDT on June 23, 2017 (GMT -0500)
Collin County Regional

Weather History for KTKI - December, 2012

Change the Weather History Date:

Monday, December 10, 2012

  Actual Average (KADS) Record (KADS)
Temperature  
Mean Temperature 34 °F -  
Max Temperature 43 °F 56 °F 75 °F (2015)
Min Temperature 25 °F 40 °F 19 °F (2013)
Degree Days  
Heating Degree Days 31    
Moisture  
Dew Point 16 °F    
Average Humidity 53    
Maximum Humidity 86    
Minimum Humidity 31    
Precipitation  
Precipitation 0.00 in - - ()
Sea Level Pressure  
Sea Level Pressure 30.16 in    
Wind  
Wind Speed 15 mph (NNW)    
Max Wind Speed 21 mph    
Max Gust Speed 34 mph    
Visibility 9 miles    
Events Snow    
Averages and records for this station are not official NWS values.
T = Trace of Precipitation, MM = Missing Value Source: NWS Daily Summary

Daily Weather History Graph

Daily Weather History Graph

Search for Another Location

Airport or City:

Trip Planner

Search our weather history database for the weather conditions in past years. The results will help you decide how hot, cold, wet, or windy it might be!

Date:

Astronomy

Dec. 10, 2012 Rise Set
Actual Time 7:19 AM CST 5:19 PM CST
Civil Twilight 6:51 AM CST 5:46 PM CST
Nautical Twilight 6:21 AM CST 6:17 PM CST
Astronomical Twilight 5:50 AM CST 6:47 PM CST
Moon 4:09 AM CST (12/10) 3:05 PM CST (12/10)
Length of Visible Light 10h 55m
Length of Day
10h 00m
Waning Crescent, 10% of the Moon is Illuminated
Dec 10
Waning Crescent
Dec 13
New
Dec 19
First Quarter
Dec 28
Full
Jan 4
Last Quarter

Hourly Weather History & Observations

Time (CST) Temp. Windchill Dew Point Humidity Pressure Visibility Wind Dir Wind Speed Gust Speed Precip Events Conditions
12:53 AM 37.0 °F 27.0 °F 14.0 °F 39% 30.09 in 10.0 mi NNW 18.4 mph - N/A   Mostly Cloudy
1:53 AM 35.1 °F 25.9 °F 12.9 °F 40% 30.09 in 10.0 mi North 13.8 mph 26.5 mph N/A   Mostly Cloudy
2:53 AM 35.1 °F 24.1 °F 10.9 °F 37% 30.13 in 10.0 mi NNW 19.6 mph - N/A   Mostly Cloudy
3:53 AM 34.0 °F 22.4 °F 10.9 °F 38% 30.16 in 10.0 mi NNW 20.7 mph 29.9 mph N/A   Overcast
4:53 AM 34.0 °F 23.0 °F 10.9 °F 38% 30.17 in 10.0 mi NNW 18.4 mph - N/A   Overcast
5:31 AM 28.4 °F 15.4 °F 23.0 °F 80% 30.14 in 1.8 mi NNW 19.6 mph 34.5 mph 0.00 in Snow Light Snow
5:43 AM 28.4 °F 16.6 °F 24.8 °F 86% 30.14 in 3.0 mi NNW 16.1 mph - 0.00 in Snow Light Snow
5:51 AM 28.4 °F 18.5 °F 24.8 °F 86% 30.14 in 9.0 mi NNW 11.5 mph 21.9 mph 0.00 in   Overcast
5:53 AM 28.9 °F 18.6 °F 24.1 °F 82% 30.18 in 9.0 mi NNW 12.7 mph 21.9 mph 0.00 in   Mostly Cloudy
6:53 AM 28.9 °F 16.5 °F 23.0 °F 78% 30.19 in 10.0 mi NW 18.4 mph 25.3 mph N/A   Mostly Cloudy
7:46 AM 28.4 °F 16.6 °F 21.2 °F 74% 30.17 in 10.0 mi NW 16.1 mph - N/A   Scattered Clouds
7:53 AM 28.0 °F 16.5 °F 21.0 °F 75% 30.21 in 10.0 mi NNW 15.0 mph - N/A   Partly Cloudy
8:53 AM 30.0 °F 17.5 °F 18.0 °F 61% 30.22 in 10.0 mi NNW 19.6 mph 26.5 mph N/A   Clear
9:53 AM 32.0 °F 21.6 °F 17.1 °F 54% 30.22 in 10.0 mi NNW 15.0 mph 24.2 mph N/A   Clear
10:53 AM 34.0 °F 24.6 °F 16.0 °F 48% 30.21 in 10.0 mi NW 13.8 mph 20.7 mph N/A   Clear
11:53 AM 37.0 °F 28.9 °F 17.1 °F 44% 30.20 in 10.0 mi NNW 12.7 mph 20.7 mph N/A   Clear
12:53 PM 39.0 °F 31.0 °F 16.0 °F 39% 30.17 in 10.0 mi NW 13.8 mph - N/A   Clear
1:53 PM 42.1 °F 34.9 °F 16.0 °F 35% 30.14 in 10.0 mi NNW 13.8 mph - N/A   Clear
2:53 PM 42.1 °F 36.6 °F 15.1 °F 34% 30.14 in 10.0 mi North 9.2 mph 21.9 mph N/A   Clear
3:53 PM 43.0 °F 37.2 °F 14.0 °F 31% 30.14 in 10.0 mi North 10.4 mph - N/A   Clear
4:53 PM 41.0 °F 34.7 °F 14.0 °F 33% 30.13 in 10.0 mi NNW 10.4 mph - N/A   Clear
5:53 PM 37.9 °F 34.4 °F 14.0 °F 38% 30.14 in 10.0 mi NNW 4.6 mph - N/A   Clear
6:53 PM 34.0 °F 28.8 °F 12.9 °F 42% 30.16 in 10.0 mi NNW 5.8 mph - N/A   Clear
7:53 PM 34.0 °F 31.0 °F 14.0 °F 44% 30.17 in 10.0 mi NNW 3.5 mph - N/A   Clear
8:53 PM 30.9 °F 27.5 °F 14.0 °F 50% 30.18 in 10.0 mi NW 3.5 mph - N/A   Clear
9:53 PM 28.0 °F 21.7 °F 12.0 °F 51% 30.20 in 10.0 mi WNW 5.8 mph - N/A   Clear
10:53 PM 25.0 °F 18.1 °F 14.0 °F 63% 30.20 in 10.0 mi NW 5.8 mph - N/A   Clear
11:53 PM 25.0 °F - 14.0 °F 63% 30.19 in 10.0 mi Calm Calm - N/A   Clear